Theta_e
306 307 307 307 308 308 308 309 309 309 309 308 307 307 307 310 316 326 333 334 333 333 334 335 334 334 334 331 320 326 330 332 334
307 307 307 307 307 307 307 307 307 307 307 308 309 309 309 307 307 308 313 323 332 333 332 334 335 334 334 334 330 323 325 328 332
307 307 307 307 308 307 308 307 307 307 307 307 307 307 307 309 309 308 307 308 315 328 332 333 332 334 334 334 334 333 326 326 330
307 308 308 308 308 308 308 308 308 308 309 309 308 308 308 307 308 309 310 308 308 316 330 330 330 331 332 333 334 335 334 330 329
307 308 308 308 308 308 308 309 309 309 309 309 310 310 310 311 310 309 309 310 310 312 315 319 324 328 330 329 334 333 334 334 332
307 307 307 308 308 308 308 308 308 308 308 308 308 308 309 310 311 311 311 311 312 313 314 315 317 321 316 321 327 332 334 334 334
305 306 307 307 307 307 307 307 307 308 308 308 308 308 309 309 310 310 311 312 313 312 312 312 312 312 314 317 320 324 327 330 332
304 305 305 305 305 304 305 305 306 306 306 307 308 309 310 310 311 312 313 312 312 312 312 313 313 312 312 312 311 311 311 312 317
304 305 305 305 306 306 306 306 307 306 306 306 306 307 308 310 312 314 313 313 314 315 314 314 314 314 319 321 319 313 312 311 311
306 306 306 307 307 307 307 307 307 307 307 306 307 307 308 309 312 314 314 316 316 316 315 316 318 318 318 323 319 322 322 318 313
308 308 308 308 308 308 308 307 307 307 307 306 306 307 306 308 313 315 316 317 317 317 318 318 319 320 320 318 319 318 317 321 321
306 306 306 306 306 306 306 307 307 307 307 306 306 306 306 309 315 316 318 318 317 317 317 317 318 318 320 322 322 321 321 319 320
306 306 306 306 306 306 306 306 306 306 307 306 306 306 307 307 316 317 318 318 318 317 316 316 316 317 319 320 320 321 321 322 323
306 306 306 305 305 306 306 306 306 306 306 306 306 307 313 314 316 317 317 317 317 316 316 316 315 315 316 317 318 317 317 320 322
305 304 305 305 305 305 305 305 305 306 306 305 306 310 316 317 317 316 315 314 316 315 313 314 315 315 315 315 316 316 316 319 321
304 304 304 304 304 304 305 305 305 305 305 305 308 313 316 317 315 314 314 314 314 312 311 309 313 314 315 314 315 316 316 316 321
303 303 303 303 303 304 304 304 304 304 304 305 306 307 312 316 314 313 313 314 313 308 304 304 310 313 315 314 314 315 315 315 317
303 303 303 303 303 303 303 303 303 303 304 304 305 306 307 306 306 312 312 309 304 303 302 302 310 312 313 313 312 313 314 314 315
302 302 302 302 302 303 302 302 303 303 303 303 304 304 304 304 304 304 304 304 304 303 302 309 311 310 311 310 311 309 310 310 314
302 302 301 301 301 301 301 302 302 302 302 303 303 303 303 304 305 303 304 304 303 302 303 307 309 308 308 308 308 304 301 300 307
Wind_Speed
8 8 8 8 7 7 7 8 10 11 11 13 14 15 17 18 19 18 16 14 13 13 13 12 13 12 11 11 13 14 14 14 14
8 8 8 8 7 7 7 7 7 8 9 10 12 13 15 17 17 18 19 18 16 16 17 15 15 15 14 14 14 15 17 17 17
7 7 7 7 7 7 7 6 6 6 7 8 9 10 12 13 15 16 17 17 19 17 17 19 17 16 18 17 16 17 18 19 19
8 7 7 7 7 8 8 7 6 7 7 7 8 9 9 9 10 11 13 14 14 15 19 20 19 17 16 18 18 18 19 20 21
10 9 8 8 8 8 8 8 7 7 7 7 7 8 8 8 8 8 8 10 11 12 17 20 22 22 20 17 19 21 20 21 22
10 10 10 9 9 9 9 9 8 7 8 9 8 8 8 9 8 8 9 10 11 13 15 18 20 24 26 24 23 23 21 22 23
9 9 9 10 10 11 10 10 10 10 10 9 9 9 8 8 8 8 9 10 11 13 15 17 18 20 24 27 27 28 30 29 27
8 8 7 7 8 8 8 9 10 10 10 10 10 10 9 8 8 7 7 9 9 10 12 14 15 16 18 21 24 26 28 31 34
8 8 8 8 9 9 9 9 9 10 11 11 11 10 10 9 7 6 6 6 8 10 11 12 13 14 15 16 17 20 23 26 28
10 10 10 10 11 11 10 11 12 12 12 12 12 11 10 9 7 6 5 7 9 10 9 10 12 12 13 13 15 15 17 20 23
11 11 12 13 13 14 14 14 14 14 14 13 13 12 11 9 6 4 4 7 9 8 8 9 11 12 13 14 16 17 16 17 21
11 12 13 13 14 14 14 14 14 14 13 13 13 13 11 7 5 3 3 5 7 8 9 9 11 12 11 11 13 14 14 15 18
13 14 14 14 15 15 15 15 14 14 14 13 12 13 11 7 4 3 2 5 7 8 10 11 12 12 11 11 12 13 13 16 19
14 15 15 16 15 15 16 15 16 17 13 12 11 8 4 3 5 3 2 7 8 9 11 12 13 12 12 14 15 16 18 18 23
13 14 14 14 14 14 14 15 14 16 16 12 7 3 1 3 5 4 3 6 11 12 12 13 14 13 13 14 15 17 20 21 24
14 14 14 14 14 14 15 15 14 13 14 10 4 1 4 5 3 7 9 8 12 15 16 15 14 14 14 15 16 17 20 22 24
14 14 15 14 14 14 14 15 14 15 15 13 8 3 5 9 9 14 13 13 15 18 16 14 12 14 13 14 15 16 19 22 24
13 14 15 15 15 15 15 15 15 14 13 11 7 5 4 12 9 9 10 12 14 14 14 11 8 11 13 14 16 17 19 20 22
13 13 14 14 15 14 15 15 14 13 13 10 8 8 9 6 10 5 13 11 12 11 10 7 5 9 14 14 17 17 19 20 19
12 12 13 13 13 14 14 14 14 14 13 13 13 10 10 6 8 22 23 17 12 12 7 4 6 9 14 17 18 19 20 20 18
Wind_Direction
345 342 338 334 329 319 307 294 286 282 277 271 267 266 265 262 258 256 258 259 261 255 261 266 257 261 268 270 260 257 259 255 252
354 350 349 344 339 330 321 312 303 297 292 286 279 272 268 266 263 260 256 254 253 252 263 266 264 258 263 266 266 258 258 260 257
350 353 351 345 344 337 332 323 312 304 297 289 286 282 276 272 268 263 260 257 253 253 265 264 268 266 265 264 264 264 258 258 258
344 352 354 350 348 343 336 331 326 317 314 309 301 294 292 290 284 274 260 255 257 248 254 258 262 268 266 260 266 265 263 258 258
350 353 349 348 346 346 341 336 333 331 327 322 314 305 301 301 298 290 271 255 252 255 255 259 259 259 267 271 270 264 263 260 257
352 349 351 351 348 347 342 336 331 326 321 316 311 305 298 293 291 285 279 273 264 265 267 266 266 264 266 268 266 267 267 265 264
357 355 355 354 350 347 341 338 334 329 322 317 312 310 306 299 292 285 281 283 284 281 282 279 273 271 268 268 266 263 264 262 261
1 3 359 359 354 347 344 338 332 328 324 317 313 309 306 304 302 300 283 277 284 289 293 294 291 286 281 277 277 275 270 266 263
6 7 6 359 356 352 347 342 338 334 329 323 319 313 306 301 302 291 287 296 303 308 306 301 299 289 291 296 293 284 277 274 271
6 359 354 348 346 344 341 338 334 331 331 327 322 316 312 303 291 288 303 322 326 320 319 325 319 308 299 299 295 292 292 290 284
355 349 344 340 336 335 333 330 327 325 326 326 320 314 308 295 279 285 324 337 349 344 345 350 342 343 335 325 319 310 295 297 293
347 343 341 338 334 333 330 325 321 316 318 320 313 308 307 288 257 268 323 329 337 345 345 345 352 4 5 343 336 334 323 304 291
339 335 334 332 330 328 329 326 324 321 323 321 310 307 307 254 213 214 326 315 327 338 338 346 350 355 355 351 344 337 330 330 322
335 336 335 334 332 329 328 332 329 327 334 330 323 316 339 156 183 189 303 313 316 327 333 334 344 344 340 346 345 340 339 330 320
341 340 338 337 335 333 330 333 338 331 337 340 330 296 248 157 196 217 266 293 304 315 323 319 329 337 336 341 337 342 344 342 331
341 342 342 340 338 337 336 338 340 335 339 353 328 245 204 181 221 262 266 281 302 308 317 316 312 321 329 337 337 339 340 347 344
345 346 346 347 347 343 340 340 348 348 349 357 349 330 241 223 268 269 267 276 289 306 313 314 310 309 326 335 335 334 337 343 348
350 350 350 350 351 349 348 346 348 350 352 355 9 341 334 318 268 254 278 286 305 313 318 314 311 308 324 334 336 338 338 341 347
351 352 351 353 354 353 351 351 350 350 345 348 336 325 309 323 314 289 300 319 326 323 333 329 322 321 323 337 336 339 340 342 343
352 354 355 356 359 358 356 354 353 351 348 341 339 338 322 300 297 310 321 332 354 343 320 341 338 321 321 328 334 337 336 339 339